ELEKTRO-L 4

Last updated on Thu Jul 03 2025 00:02:49 GMT+0000 (Coordinated Universal Time)

1 55506U 23016A 25182.76143295 -.00000053 00000+0 00000+0 0 9995 2 55506 0.1010 234.5043 0001262 298.7724 186.7133 1.00272957 8826
UTC large
Height (km)
Speed (km/s)
/
Latitude / Longitude
Inclination (degrees)
Orbital Period (minutes)
Azimuth
Elevation
Range (km)
Doppler Factor

Next 0 passes for location: London (51.5072 / 0.1276)

Sorry there are no passes over London.